DELTA 1 DEB, 21353

Orbit data source: Space-Track

DELTA 1 DEB, 21353 is space debris in SSO originally from a launch on Thu, 12 Jun 1975 UTC launched from the Air Force Western Test Range (AFWTR). Debris objects in space refer to the collection of defunct objects orbiting the Earth. Examples of debris include non-operational satellites, rocket bodies, and fragments generated from explosions, collisions, or faulty payload assembly.

Loading next visibility...
Identifier
21353, 1975-052BX
Orbit
SSO
Country
Flag of USUS
Related business
Manufacturer
Unknown
Mission
Spacecraft
Bus & Motor
Unknown
Mass
Unknown
Launch date (UTC)
1975-06-12 (51 years ago)
Launch vehicle
Unknown
Launch site
Air Force Western Test Range (AFWTR)
Object type
Payload
Rocket body
Debris
Shape & HBR
Unknown shape, 0.1 m
Radar Cross Section
Small (<0.1 m²)

Expand to show TLE details & history
Last TLE update: 2 days ago

TLE from 2 days ago
0 DELTA 1 DEB
1 21353U 75052BX  25348.32816154  .00000075  00000-0  49777-3 0  9994
2 21353  99.5608 247.3319 0522040 342.2229 133.1160 12.40735985564700
Epoch: 2025-12-14T07:52Z
TLE epoch observation values (Epoch: 2025-12-14T07:52:33.157Z)
Latitude
59.19403°
Longitude
-117.71953°
Altitude
1,805.515 km
Speed
6.855 km/s
True Right ascension
05h 34m 38s
True Declination
59° 03' 43"
Sunlit
Object was in full shadow at epoch
Visualization orbit readout
Latitude
Unknown
Longitude
Unknown
Altitude
Unknown
Speed
Unknown
Apparent Right ascension
Unknown
Apparent Declination
Unknown
Sunlit
N/A
Visualization observer readout
Local Sidereal Time
10:39:38
Azimuth
Unknown
Elevation
Unknown
Doppler factor
Unknown
Orbital elements
Apogee altitude
1,912.235 km
Perigee altitude
1,089.599 km
Semi-major axis
7,879.054 km
Eccentricity
0.0522
Inclination
99.5608°
RAAN
247.3319°
Arg. of periapsis
342.2229°
True anomaly
137.29237°
Mean anomaly
133.116°
Eccentric anomaly
135.22277°
Mean motion
3.10336 °/min
Orbital period
116 mins
BSTAR
0.00049777
Loading maneuver chart data...
Computing Atmospheric mass density...
Loading historical data...
Loading historical data...
Loading historical data...
Loading historical data...
Loading historical data...
Loading historical data...
Loading historical data...

Documentation

Showing up to 5 results
|